Flag for U.S.A. Weather past 2 weeks in Bloomington, Indiana, U.S.A.

Now
83 °F

Passing clouds.


Feels Like: 89 °F
Forecast: 70 / 87 °F
Wind: 5 mph from Southwest

Location: Monroe County Airport

Current Time: Aug 21, 2014 at 2:33:53 PM

Latest Report: Aug 21, 2014 at 1:53 PM


Visibility: 10 mi

Pressure: 30.03 "Hg

Humidity: 74%

Dew point: 74 °F

Location of BloomingtonLocation

Historic Weather in Bloomington — Graph

°F

Bloomington temperature yesterday

Maximum temperature yesterday: 83 °F (at 12:53 PM)
Minimum temperature yesterday: 68 °F (at 2:02 AM)
Average temperature yesterday: 74 °F

Past Weeks' High & Low Weather Summary

 TemperatureHumidityPressure
High84 °F (Aug 18, 2:53 PM)96% (Aug 11, 1:53 AM)30.09 "Hg (Aug 11, 1:53 AM)
Low50 °F (Aug 15, 6:53 AM)33% (Aug 15, 12:53 PM)29.78 "Hg (Aug 19, 5:53 PM)
Average71 °F81%29.95 "Hg
* Reported Aug 6 12:53 PM — Aug 21 12:53 PM, Bloomington, Weather by CustomWeather, © 2014

Note: Actual official high and low records may vary slightly from our data, if they occured in-between our weather recording intervals... More about our weather records

Advertising

Bloomington weather history for previous 24 hours

 ConditionsComfort  
Time TempWeatherWind HumidityBarometerVisibility
12:53 PM
Aug 21
83 °FScattered clouds.10 mph72%30.03 "Hg10 mi
11:53 AM82 °FPassing clouds.10 mph77%30.03 "Hg10 mi
10:53 AM79 °FScattered clouds.10 mph79%30.03 "Hg10 mi
9:53 AM77 °FPartly sunny.7 mph82%30.01 "Hg10 mi
8:53 AM71 °FPassing clouds.3 mph90%30.01 "Hg10 mi
7:53 AM71 °FClear.3 mph87%30.00 "Hg10 mi
6:53 AM71 °FPassing clouds.5 mph87%29.98 "Hg10 mi
5:53 AM71 °FPassing clouds.7 mph87%29.97 "Hg10 mi
4:53 AM72 °FClear.7 mph87%29.99 "Hg10 mi
3:53 AM73 °FClear.3 mph88%29.98 "Hg10 mi
2:53 AM72 °FPassing clouds.7 mph87%30.00 "Hg10 mi
1:53 AM72 °FClear.No wind87%30.00 "Hg10 mi
12:53 AM73 °FClear.6 mph84%30.00 "Hg10 mi
11:53 PM
Aug 20
73 °FClear.6 mph88%30.01 "Hg10 mi
10:53 PM71 °FClear.No wind93%30.01 "Hg10 mi
9:53 PM72 °FClear.3 mph91%29.99 "Hg10 mi
8:53 PM73 °FScattered clouds.No wind88%29.96 "Hg10 mi
7:53 PM76 °FSunny.3 mph82%29.94 "Hg10 mi
6:53 PM78 °FSunny.6 mph71%29.92 "Hg10 mi
5:53 PM81 °FSunny.6 mph65%29.90 "Hg10 mi
4:53 PM77 °FSunny.7 mph77%29.92 "Hg10 mi
3:53 PM74 °FLight rain. Broken clouds.6 mph85%29.94 "Hg10 mi
2:53 PM78 °FLight rain. Mostly cloudy.10 mph87%30.01 "Hg9 mi
Weather by CustomWeather, © 2014

See weather overviewHow to use our weather pages